Location: Newark
(54.5481°N, 3.5856°W)
Time: 10:57:29
(UTC+00:00)

N. Korean satellite - Visible Passes

Search period start: 20 October 2019 00:00
Search period end: 30 October 2019 00:00
Orbit: 455 x 508 km, 97.2° (Epoch: 19 October)

Date Brightness Start Highest point End Pass type
(mag) Time Alt. Az. Time Alt. Az. Time Alt. Az.
20 Oct 10.5 18:38:52 10° W 18:39:45 11° W 18:40:37 10° WNW visible
21 Oct 8.2 05:55:10 10° NNE 05:58:36 40° E 06:02:04 10° S visible
21 Oct 9.7 18:11:39 10° SW 18:14:10 19° W 18:16:43 10° NW visible
22 Oct 9.4 05:30:12 10° NE 05:33:09 23° E 05:36:08 10° SSE visible
22 Oct 8.6 17:45:31 10° SSW 17:48:40 33° W 17:51:53 10° NNW visible
23 Oct 10.2 05:05:42 10° NE 05:07:37 14° E 05:09:32 10° ESE visible
24 Oct 7.2 06:12:30 10° NNE 06:16:07 63° E 06:19:47 10° S visible
24 Oct 10.2 18:30:07 10° WSW 18:31:48 13° W 18:33:29 10° WNW visible
25 Oct 8.6 05:47:22 10° NNE 05:50:44 34° E 05:54:07 10° SSE visible
25 Oct 9.4 18:03:27 10° SSW 18:06:14 22° W 18:09:04 10° NW visible
26 Oct 9.6 05:22:29 10° NE 05:25:15 20° E 05:28:02 10° SE visible
26 Oct 8.1 17:37:27 10° S 17:40:45 40° W 17:44:06 10° NNW visible
27 Oct 10.3 04:58:17 10° ENE 04:59:40 12° E 05:01:04 10° ESE visible
28 Oct 7.6 06:04:38 10° NNE 06:08:15 52° E 06:11:52 10° S visible
28 Oct 10.0 18:21:39 10° SW 18:23:48 16° W 18:26:00 10° NW visible
29 Oct 8.9 05:39:33 10° NNE 05:42:48 29° E 05:46:05 10° SSE visible
29 Oct 9.0 17:55:15 10° SSW 17:58:16 27° W 18:01:20 10° NW visible
